GW0544 Weather Reports


Display with metric or nautical units.
time (UTC)temp
F
wind
direction
speed
MPH
gust
MPH
rain 1hr
in
rain 24hr
in
rain mn
in
humidity
%
barometer
mb
20260505124608 48 289 4.0 11.0 0.06 0.16 0.16 89 1013.7
20260505123114 48 267 4.0 10.0 0.05 0.15 0.15 89 1013.7
20260505121556 48 221 4.0 10.0 0.03 0.13 0.13 89 1013.7
20260505120059 48 244 6.0 13.0 0.03 0.11 0.11 89 1013.6
20260505114603 48 271 5.0 15.0 0.04 0.10 0.10 89 1013.5
20260505113101 48 267 4.0 12.0 0.07 0.10 0.10 88 1013.5
20260505111603 48 312 7.0 13.0 0.09 0.10 0.10 88 1013.6
20260505101601 48 258 2.0 6.0 0.01 0.01 0.01 86 1013.8
20260505100100 48 249 0.0 3.0 0.01 0.01 0.01 85 1013.9
20260505094551 48 250 1.0 3.0 0.01 0.01 0.01 85 1014.1
20260505093052 48 248 1.0 6.0 0.00 0.00 0.00 84 1014.3
20260505091551 48 274 2.0 4.0 0.00 0.00 0.00 83 1014.2
20260505090107 48 268 2.0 8.0 0.00 0.00 0.00 82 1014.4
20260505084551 48 249 2.0 7.0 0.00 0.00 0.00 80 1014.4
20260505083103 49 286 2.0 8.0 0.00 0.00 0.00 81 1014.7
20260505081555 49 286 2.0 7.0 0.00 0.00 0.00 82 1014.9
20260505080057 48 265 2.0 4.0 0.00 0.00 0.00 81 1015.2
20260505074557 48 250 1.0 4.0 0.00 0.00 0.00 80 1015.2
20260505073100 48 286 3.0 9.0 0.00 0.00 0.00 80 1015.3
20260505071557 49 263 2.0 7.0 0.00 0.00 0.00 80 1015.5
20260505070054 48 294 2.0 8.0 0.00 0.00 0.00 80 1015.6
20260505064554 48 285 1.0 3.0 0.00 0.00 0.00 79 1015.7
20260505063059 49 0 2.0 5.0 0.00 0.00 0.00 79 1015.7
20260505061601 49 281 1.0 5.0 0.00 0.00 0.00 79 1015.7
20260505060058 49 276 2.0 7.0 0.00 0.00 0.00 78 1016.0
20260505054559 49 259 2.0 6.0 0.00 0.00 0.00 79 1015.9
20260505053058 49 269 3.0 9.0 0.00 0.00 0.00 79 1016.1
20260505051733 49 283 3.0 8.0 0.00 0.00 0.00 80 1016.4
20260505050126 49 285 3.0 9.0 0.00 0.00 0.00 79 1016.3
20260505041605 49 281 3.0 10.0 0.00 0.00 0.00 77 1016.3
20260505034553 50 290 4.0 10.0 0.00 0.00 0.00 75 1016.2
20260505033054 51 284 4.0 11.0 0.00 0.00 0.00 74 1016.0
20260505031559 51 305 4.0 11.0 0.00 0.00 0.00 74 1015.9
20260505030055 51 297 4.0 14.0 0.00 0.00 0.00 73 1015.8
20260505024552 52 352 5.0 14.0 0.00 0.00 0.00 72 1015.6
20260505023054 53 290 6.0 12.0 0.00 0.00 0.00 71 1015.6
20260505021554 54 333 7.0 13.0 0.00 0.00 0.00 69 1015.2
20260505020055 55 338 5.0 12.0 0.00 0.00 0.00 68 1015.2
20260505014628 56 296 6.0 13.0 0.00 0.00 0.00 67 1015.2
20260505013054 56 290 8.0 15.0 0.00 0.00 0.00 64 1015.3
20260505011604 58 288 7.0 19.0 0.00 0.00 0.00 62 1015.3
20260505010058 58 264 6.0 19.0 0.00 0.00 0.00 64 1015.4
20260505004554 58 289 6.0 16.0 0.00 0.00 0.00 64 1015.5
20260505003057 58 259 6.0 16.0 0.00 0.00 0.00 64 1015.4
20260505001623 58 324 8.0 17.0 0.00 0.00 0.00 63 1015.4
20260505000135 58 304 7.0 15.0 0.00 0.00 0.00 61 1015.7
20260504234613 59 317 7.0 19.0 0.00 0.00 0.00 58 1015.5
20260504233105 60 248 7.0 14.0 0.00 0.00 0.00 57 1015.5
20260504231557 60 352 6.0 15.0 0.00 0.00 0.00 57 1015.4
20260504230054 60 317 8.0 16.0 0.00 0.00 0.00 56 1015.4
20260504224610 61 290 4.0 17.0 0.00 0.00 0.00 55 1015.5
20260504223055 61 302 4.0 15.0 0.00 0.00 0.00 56 1015.5
20260504221557 61 328 9.0 19.0 0.00 0.00 0.00 55 1015.8
20260504220100 62 305 7.0 20.0 0.00 0.00 0.00 53 1016.1
20260504214554 61 311 9.0 18.0 0.00 0.00 0.00 54 1016.1
20260504213126 61 307 7.0 19.0 0.00 0.00 0.00 53 1016.1
20260504211603 61 16 3.0 17.0 0.00 0.00 0.00 56 1016.1
20260504210051 61 302 8.0 14.0 0.00 0.00 0.00 52 1016.1
20260504204554 60 313 8.0 16.0 0.00 0.00 0.00 56 1016.1
20260504203112 60 278 5.0 17.0 0.00 0.00 0.00 55 1016.1
20260504201555 59 319 6.0 15.0 0.00 0.00 0.00 58 1016.2
20260504200052 60 329 7.0 16.0 0.00 0.00 0.00 56 1016.1
20260504194602 60 296 6.0 15.0 0.00 0.00 0.00 55 1016.2
20260504193105 59 311 8.0 14.0 0.00 0.00 0.00 57 1016.6
20260504191555 59 286 5.0 12.0 0.00 0.00 0.00 58 1016.4
20260504190113 58 242 4.0 13.0 0.00 0.00 0.00 59 1016.6
20260504184606 58 277 6.0 14.0 0.00 0.00 0.00 60 1016.8
20260504183053 58 266 8.0 14.0 0.00 0.00 0.00 60 1017.0
20260504181552 57 296 7.0 14.0 0.00 0.00 0.00 61 1017.0
20260504180055 57 284 6.0 11.0 0.00 0.00 0.00 62 1017.2
20260504174601 57 272 6.0 13.0 0.00 0.00 0.00 61 1016.8
20260504173057 57 283 6.0 13.0 0.00 0.00 0.00 62 1017.1
20260504171555 56 238 8.0 17.0 0.00 0.00 0.00 63 1016.7
20260504140108 49 295 4.0 11.0 0.00 0.00 0.00 81 1016.1